Location: La Oliva
(42.2466°N, 2.9955°E)
Time: 11:08:44
(UTC+00:00)

ATLAS 5 CENTAUR R/B - Pass Details

Date: 22 April 2021
Orbit: 256 x 14169 km, 60.8° (Epoch: 10 May)

Event Time Altitude Azimuth Distance (km) Brightness Sun altitude
Rises 19:54:13 0° 312° (NW) 1,862 6.3 -13.7°
Reaches altitude 10° 19:55:46 10° 302° (WNW) 1,071 4.8 -14.0°
Maximum altitude 19:57:35 37° 229° (SW) 522 1.8 -14.2°
Enters shadow 19:59:06 20° 170° (S) 1,031 2.8 -14.5°
